Location: Steilacoom
(47.1700°N, 122.5700°W)
Time: 14:48:17
(UTC-08:00)

Envisat - Visible Passes

Search period start: 13 November 2019 00:00
Search period end: 23 November 2019 00:00
Orbit: 764 x 766 km, 98.1° (Epoch: 13 November)

Date Brightness Start Highest point End Pass type
(mag) Time Alt. Az. Time Alt. Az. Time Alt. Az.
13 Nov 2.9 18:01:46 10° SSE 18:06:51 86° ENE 18:11:58 10° NNW visible
13 Nov 6.0 19:44:10 10° WSW 19:46:34 13° W 19:48:58 10° WNW visible
14 Nov 5.6 06:08:08 10° NE 06:12:14 24° E 06:16:18 10° SE visible
14 Nov 3.3 17:25:26 10° SE 17:30:12 42° ENE 17:34:59 10° N visible
14 Nov 5.0 19:05:04 10° SSW 19:09:22 28° W 19:13:43 10° NW visible
15 Nov 6.4 05:33:28 10° ENE 05:35:00 11° E 05:36:32 10° ESE visible
15 Nov 3.6 18:27:24 10° S 18:32:23 57° W 18:37:24 10° NNW visible
16 Nov 4.7 06:33:09 10° NNE 06:37:56 39° E 06:42:41 10° SSE visible
16 Nov 2.9 17:50:33 10° SSE 17:55:36 70° ENE 18:00:41 10° N visible
16 Nov 5.8 19:31:57 10° SW 19:35:09 17° W 19:38:22 10° NW visible
17 Nov 5.9 05:57:13 10° NE 06:00:51 19° E 06:04:28 10° SE visible
17 Nov 3.6 17:14:26 10° SE 17:19:00 35° ENE 17:23:35 10° N visible
17 Nov 4.7 18:53:25 10° SSW 18:58:01 34° W 19:02:38 10° NNW visible
18 Nov 3.3 18:16:02 10° S 18:21:05 71° WSW 18:26:11 10° NNW visible
19 Nov 5.1 06:22:02 10° NNE 06:26:35 32° E 06:31:06 10° SSE visible
19 Nov 3.0 17:39:23 10° SSE 17:44:21 57° ENE 17:49:21 10° N visible
19 Nov 5.5 19:20:00 10° SW 19:23:44 21° W 19:27:32 10° NW visible
20 Nov 6.0 05:46:25 10° NE 05:49:26 16° E 05:52:26 10° SE visible
20 Nov 3.8 17:03:30 10° ESE 17:07:49 29° ENE 17:12:09 10° N visible
20 Nov 4.2 18:41:52 10° SSW 18:46:40 42° W 18:51:30 10° NNW visible
21 Nov 4.0 06:47:14 10° NNE 06:52:14 53° E 06:57:11 10° S visible
21 Nov 3.0 18:04:43 10° SSE 18:09:48 87° WSW 18:14:56 10° NNW visible
21 Nov 6.1 19:47:37 10° WSW 19:49:35 12° W 19:51:32 10° WNW visible
22 Nov 5.4 06:10:59 10° NE 06:15:13 26° E 06:19:26 10° SSE visible
22 Nov 3.2 17:28:19 10° SE 17:33:07 46° ENE 17:37:59 10° N visible
22 Nov 5.2 19:08:11 10° SSW 19:12:21 25° W 19:16:34 10° NW visible
